INSAT-3DR

Last updated on Fri Oct 11 2024 00:02:17 GMT+0000 (Coordinated Universal Time)

1 41752U 16054A 24284.56107194 -.00000073 00000+0 00000+0 0 9997 2 41752 0.1172 91.9006 0012670 171.2613 32.4890 1.00271426 29655
UTC large
Height (km)
Speed (km/s)
/
Latitude / Longitude
Inclination (degrees)
Orbital Period (minutes)
Azimuth
Elevation
Range (km)
Doppler Factor

Next 0 passes for location: London (51.5072 / 0.1276)

Sorry there are no passes over London.